• în România
  • Lista ţărilor
  • Pe 7 zile
  • Temperatura apei
  • Hartă satelitară
  • Meteo pe hartă
  • Widget-uri
  • user-avatar
    Intrare

    Meteo pe oră la Karlovac

    Astăzi, 14 Decembrie, Joi

    Timp Temperatura Precipitaţii Vânt Presiune Umiditate
    00:00 +3°C° 0 mm 3 m/s 738 mmHg 90%
    01:00 +4°C° 0 mm 3 m/s 737 mmHg 88%
    02:00 +4°C° 0 mm 4 m/s 736 mmHg 87%
    03:00 +5°C° 0 mm 4 m/s 736 mmHg 85%
    04:00 +5°C° 0 mm 5 m/s 735 mmHg 84%
    05:00 +5°C° 0,1 mm 6 m/s 735 mmHg 83%
    06:00 +5°C° 0,1 mm 6 m/s 735 mmHg 82%
    07:00 +7°C° 0,1 mm 6 m/s 734 mmHg 82%
    08:00 +7°C° 0,1 mm 6 m/s 734 mmHg 81%
    09:00 +8°C° 0,1 mm 6 m/s 734 mmHg 80%
    10:00 +8°C° 0,1 mm 6 m/s 734 mmHg 79%
    11:00 +9°C° 0,2 mm 7 m/s 734 mmHg 78%
    12:00 +9°C° 0,2 mm 7 m/s 734 mmHg 77%
    13:00 +10°C° 0,2 mm 7 m/s 733 mmHg 76%
    14:00 +10°C° 0,2 mm 6 m/s 733 mmHg 77%
    15:00 +9°C° 0,2 mm 5 m/s 733 mmHg 79%
    16:00 +9°C° 0,2 mm 5 m/s 733 mmHg 81%
    17:00 +8°C° 0,1 mm 5 m/s 733 mmHg 82%
    18:00 +8°C° 0,1 mm 5 m/s 733 mmHg 84%
    19:00 +8°C° 0,1 mm 4 m/s 733 mmHg 85%
    20:00 +8°C° 0,2 mm 5 m/s 732 mmHg 83%
    21:00 +8°C° 0,2 mm 5 m/s 732 mmHg 82%
    22:00 +8°C° 0,2 mm 6 m/s 732 mmHg 81%
    23:00 +9°C° 0,2 mm 6 m/s 732 mmHg 80%

    Mâine, 15 Decembrie, Vineri

    Timp Temperatura Precipitaţii Vânt Presiune Umiditate
    00:00 +9°C° 0,2 mm 6 m/s 731 mmHg 80%
    01:00 +9°C° 0,2 mm 6 m/s 731 mmHg 79%
    02:00 +9°C° 0,3 mm 7 m/s 731 mmHg 79%
    03:00 +9°C° 0,3 mm 7 m/s 730 mmHg 78%
    04:00 +9°C° 0,3 mm 7 m/s 730 mmHg 78%
    05:00 +9°C° 0,4 mm 7 m/s 730 mmHg 77%
    06:00 +10°C° 0,4 mm 7 m/s 730 mmHg 77%
    07:00 +10°C° 0,4 mm 7 m/s 729 mmHg 77%
    08:00 +10°C° 0,4 mm 7 m/s 730 mmHg 75%
    09:00 +10°C° 0,4 mm 7 m/s 730 mmHg 74%
    10:00 +11°C° 0,4 mm 7 m/s 730 mmHg 73%
    11:00 +11°C° 0,3 mm 6 m/s 730 mmHg 72%
    12:00 +11°C° 0,3 mm 6 m/s 730 mmHg 72%
    13:00 +12°C° 0,3 mm 5 m/s 730 mmHg 71%
    14:00 +11°C° 1,8 mm 4 m/s 729 mmHg 78%
    15:00 +10°C° 1,8 mm 3 m/s 729 mmHg 84%
    16:00 +10°C° 1,8 mm 1 m/s 729 mmHg 90%
    17:00 +8°C° 2,3 mm 2 m/s 729 mmHg 91%
    18:00 +8°C° 2,3 mm 2 m/s 729 mmHg 92%
    19:00 +7°C° 2,3 mm 2 m/s 729 mmHg 92%
    20:00 +6°C° 1,9 mm 2 m/s 729 mmHg 91%
    21:00 +4°C° 1,9 mm 3 m/s 729 mmHg 90%
    22:00 +3°C° 1,9 mm 3 m/s 730 mmHg 89%
    23:00 +3°C° 1,5 mm 3 m/s 730 mmHg 90%

    Poimâine, 16 Decembrie, Sâmbătă

    Timp Temperatura Precipitaţii Vânt Presiune Umiditate
    00:00 +4°C° 1,5 mm 2 m/s 730 mmHg 91%
    01:00 +3°C° 1,5 mm 2 m/s 730 mmHg 91%
    02:00 +3°C° 0,9 mm 2 m/s 730 mmHg 92%
    03:00 +3°C° 0,9 mm 2 m/s 730 mmHg 92%
    04:00 +3°C° 0,9 mm 2 m/s 730 mmHg 92%
    05:00 +3°C° 0,2 mm 2 m/s 731 mmHg 93%
    06:00 +2°C° 0,2 mm 2 m/s 731 mmHg 93%
    07:00 +3°C° 0,2 mm 1 m/s 732 mmHg 93%
    08:00 +4°C° 0,1 mm 1 m/s 732 mmHg 93%
    09:00 +4°C° 0,1 mm 1 m/s 733 mmHg 92%
    10:00 +4°C° 0,1 mm 1 m/s 733 mmHg 91%
    11:00 +5°C° 0 mm 1 m/s 733 mmHg 90%
    12:00 +4°C° 0 mm 2 m/s 733 mmHg 88%
    13:00 +5°C° 0 mm 2 m/s 734 mmHg 87%
    14:00 +4°C° 0,1 mm 2 m/s 734 mmHg 88%
    15:00 +4°C° 0,1 mm 2 m/s 734 mmHg 90%
    16:00 +3°C° 0,1 mm 2 m/s 734 mmHg 91%
    17:00 +3°C° 0,1 mm 2 m/s 735 mmHg 91%
    18:00 +3°C° 0,1 mm 2 m/s 735 mmHg 92%
    19:00 +2°C° 0,1 mm 3 m/s 736 mmHg 92%
    20:00 +3°C° 0,1 mm 2 m/s 737 mmHg 92%
    21:00 +2°C° 0,1 mm 2 m/s 737 mmHg 92%
    22:00 +2°C° 0,1 mm 2 m/s 738 mmHg 92%
    23:00 +2°C° 0 mm 2 m/s 738 mmHg 93%

    17 Decembrie, Duminică

    Timp Temperatura Precipitaţii Vânt Presiune Umiditate
    00:00 +1°C° 0 mm 2 m/s 739 mmHg 93%
    01:00 +1°C° 0 mm 2 m/s 739 mmHg 93%
    02:00 +1°C° 0 mm 2 m/s 739 mmHg 93%
    03:00 -1°C° 0 mm 2 m/s 740 mmHg 93%
    04:00 +1°C° 0 mm 1 m/s 740 mmHg 93%
    05:00 +1°C° 0 mm 1 m/s 741 mmHg 93%
    06:00 +1°C° 0 mm 1 m/s 741 mmHg 92%
    07:00 0°C° 0 mm 1 m/s 742 mmHg 92%
    08:00 +1°C° 0 mm 1 m/s 743 mmHg 88%
    09:00 +2°C° 0 mm 1 m/s 743 mmHg 85%
    10:00 +3°C° 0 mm 1 m/s 744 mmHg 81%
    11:00 +4°C° 0 mm 1 m/s 744 mmHg 77%
    12:00 +5°C° 0 mm 1 m/s 744 mmHg 72%
    13:00 +5°C° 0 mm 1 m/s 744 mmHg 68%
    14:00 +4°C° 0 mm 1 m/s 744 mmHg 71%
    15:00 +4°C° 0 mm 1 m/s 745 mmHg 75%
    16:00 +3°C° 0 mm 1 m/s 745 mmHg 79%
    17:00 +2°C° 0 mm 1 m/s 745 mmHg 78%
    18:00 +2°C° 0 mm 1 m/s 746 mmHg 78%
    19:00 +1°C° 0 mm 1 m/s 747 mmHg 78%
    20:00 +1°C° 0 mm 1 m/s 747 mmHg 77%
    21:00 +1°C° 0 mm 1 m/s 747 mmHg 76%
    22:00 +1°C° 0 mm 1 m/s 748 mmHg 76%
    23:00 +1°C° 0 mm 1 m/s 748 mmHg 76%

    18 Decembrie, Luni

    Timp Temperatura Precipitaţii Vânt Presiune Umiditate
    00:00 +1°C° 0 mm 1 m/s 748 mmHg 75%
    01:00 0°C° 0 mm 1 m/s 749 mmHg 75%
    02:00 0°C° 0 mm 1 m/s 749 mmHg 75%
    03:00 0°C° 0 mm 1 m/s 748 mmHg 75%
    04:00 -1°C° 0 mm 0 m/s 748 mmHg 75%
    05:00 0°C° 0 mm 1 m/s 749 mmHg 75%
    06:00 0°C° 0 mm 1 m/s 749 mmHg 75%
    07:00 0°C° 0 mm 1 m/s 749 mmHg 75%
    08:00 +1°C° 0 mm 1 m/s 749 mmHg 72%
    09:00 +2°C° 0 mm 1 m/s 748 mmHg 69%
    10:00 +4°C° 0 mm 1 m/s 748 mmHg 67%
    11:00 +3°C° 0 mm 2 m/s 747 mmHg 66%
    12:00 +4°C° 0 mm 2 m/s 747 mmHg 65%
    13:00 +4°C° 0 mm 3 m/s 746 mmHg 65%
    14:00 +4°C° 0 mm 3 m/s 745 mmHg 68%
    15:00 +3°C° 0 mm 3 m/s 745 mmHg 71%
    16:00 +2°C° 0 mm 3 m/s 744 mmHg 75%
    17:00 +3°C° 0 mm 2 m/s 744 mmHg 75%
    18:00 +3°C° 0 mm 2 m/s 744 mmHg 75%
    19:00 +2°C° 0 mm 2 m/s 744 mmHg 75%
    20:00 +2°C° 0 mm 2 m/s 744 mmHg 76%
    21:00 +2°C° 0 mm 2 m/s 744 mmHg 77%
    22:00 +2°C° 0 mm 2 m/s 745 mmHg 79%
    23:00 +3°C° 0 mm 1 m/s 745 mmHg 80%

    19 Decembrie, Marţi

    Timp Temperatura Precipitaţii Vânt Presiune Umiditate
    00:00 +3°C° 0 mm 1 m/s 745 mmHg 81%
    01:00 +3°C° 0 mm 1 m/s 745 mmHg 83%
    02:00 +3°C° 0 mm 1 m/s 745 mmHg 83%
    03:00 +2°C° 0 mm 1 m/s 746 mmHg 84%
    04:00 +2°C° 0 mm 1 m/s 746 mmHg 84%
    05:00 +2°C° 0 mm 1 m/s 747 mmHg 85%
    06:00 +2°C° 0 mm 1 m/s 747 mmHg 85%
    07:00 +2°C° 0 mm 1 m/s 748 mmHg 85%
    08:00 +3°C° 0 mm 1 m/s 748 mmHg 82%
    09:00 +4°C° 0 mm 1 m/s 748 mmHg 79%
    10:00 +4°C° 0 mm 0 m/s 749 mmHg 76%
    11:00 +6°C° 0 mm 1 m/s 749 mmHg 75%
    12:00 +6°C° 0 mm 1 m/s 749 mmHg 74%
    13:00 +7°C° 0 mm 1 m/s 749 mmHg 73%
    14:00 +6°C° 0 mm 1 m/s 749 mmHg 77%
    15:00 +5°C° 0 mm 1 m/s 749 mmHg 82%
    16:00 +4°C° 0 mm 1 m/s 749 mmHg 86%
    17:00 +4°C° 0 mm 1 m/s 749 mmHg 88%
    18:00 +3°C° 0 mm 1 m/s 750 mmHg 89%
    19:00 +3°C° 0 mm 1 m/s 750 mmHg 91%
    20:00 +2°C° 0,1 mm 2 m/s 751 mmHg 91%
    21:00 +2°C° 0,1 mm 2 m/s 751 mmHg 92%
    22:00 +1°C° 0,1 mm 2 m/s 752 mmHg 93%
    23:00 +1°C° 0,1 mm 2 m/s 752 mmHg 93%
    Arată mai mult